Theta_e
342 344 347 348 349 348 348 348 348 349 349 349 349 348 348 347 346 345 345 345 344 343 341 338 337 336 335 334 333 332 331 331 331 330 330 329 328 326 325 323 322 320 319 318 318 317 317 318 320 318 316 314
339 341 344 345 345 345 345 346 347 347 347 347 347 346 345 344 343 343 344 344 344 343 339 337 337 337 334 333 332 332 331 330 330 330 329 329 327 326 324 322 321 319 317 316 314 315 316 316 317 317 315 309
338 336 340 342 342 342 343 344 344 345 344 343 344 343 341 340 337 336 336 337 339 338 336 333 331 334 334 332 332 331 331 331 330 330 330 329 327 325 324 322 320 318 316 314 313 313 315 313 313 312 307 306
338 334 333 337 339 339 341 341 342 341 339 337 337 338 336 332 332 329 332 328 331 331 333 330 326 330 333 332 331 331 330 330 330 330 330 328 326 325 323 321 318 315 314 312 312 313 314 312 309 301 301 305
337 336 331 332 333 334 337 338 338 339 334 329 329 331 328 325 330 328 330 328 327 324 325 322 324 328 332 332 332 333 331 330 330 329 328 327 326 324 322 318 315 314 312 312 312 311 311 308 299 299 301 307
338 337 332 336 336 335 335 332 331 334 337 330 335 326 327 328 325 325 325 324 324 322 322 321 322 326 331 331 332 333 332 330 330 329 327 326 326 324 320 314 301 303 312 311 312 310 310 299 298 298 301 306
337 337 334 335 336 335 331 332 333 335 333 332 332 329 327 324 324 324 322 322 321 321 319 321 321 326 328 330 329 331 333 332 329 328 327 326 325 322 316 302 297 296 294 294 304 303 299 297 297 297 301 304
335 336 335 335 335 335 335 334 333 333 331 331 330 327 325 324 323 323 322 321 319 320 319 319 320 324 325 326 325 326 327 329 329 329 327 325 324 317 306 298 297 296 295 293 293 294 298 298 297 297 298 301
332 333 334 335 335 335 334 333 332 331 331 330 328 326 324 323 323 323 322 321 320 320 318 317 318 320 320 320 318 321 316 317 319 320 317 318 311 304 303 300 297 297 295 295 294 295 297 297 296 297 298 301
331 330 332 333 334 334 333 332 331 330 330 329 327 325 324 323 323 322 321 320 319 319 318 317 316 317 317 316 317 317 315 314 314 312 311 309 306 303 301 300 298 297 296 294 295 296 296 296 296 295 295 299
329 328 331 332 333 333 332 332 330 329 328 328 326 325 324 323 322 321 320 319 318 318 317 316 316 315 316 316 316 315 316 314 313 311 309 307 305 301 299 297 297 297 297 295 296 296 296 296 296 295 295 298
329 329 327 330 329 331 330 330 331 330 329 328 327 325 325 323 323 321 319 318 318 317 316 316 316 315 316 316 315 314 316 314 312 310 309 307 304 302 298 296 296 297 297 296 296 296 295 295 294 295 295 296
328 327 326 326 328 330 326 329 330 330 329 328 327 325 324 323 322 321 320 318 318 316 316 315 315 315 316 315 315 314 314 314 312 310 308 306 305 302 298 296 296 296 296 295 295 296 295 295 294 295 295 295
326 326 326 325 326 328 325 328 327 327 327 328 327 325 324 323 323 322 320 318 317 317 315 315 314 314 315 315 315 314 313 312 313 309 306 303 303 299 297 297 297 296 295 295 296 295 295 294 295 294 294 294
327 325 325 325 324 324 325 325 325 325 326 326 326 325 324 322 322 321 319 318 317 316 315 314 314 314 314 314 314 315 313 310 312 308 305 301 300 297 296 296 295 294 295 294 296 295 294 294 294 295 294 294
326 325 324 322 324 323 323 323 323 323 324 323 325 324 324 323 321 320 319 318 317 316 314 313 314 313 313 314 313 314 313 309 308 306 301 298 298 296 296 295 294 295 294 294 296 294 293 292 294 293 294 293
325 325 324 323 323 323 322 323 323 323 322 323 323 323 324 323 321 319 319 317 317 315 314 313 313 312 313 313 312 312 312 307 304 300 298 297 297 295 295 294 294 295 294 294 294 294 293 293 293 294 294 294
322 322 321 321 322 321 322 320 320 320 321 320 321 321 322 322 320 319 318 317 315 315 314 312 312 312 312 312 311 310 308 306 301 299 297 296 295 296 294 293 293 293 293 292 292 293 292 292 293 293 294 293
320 318 320 319 320 321 321 321 321 318 320 320 319 320 320 321 319 318 317 316 315 313 313 312 311 311 312 310 309 308 305 304 299 298 297 295 294 294 292 292 293 293 292 292 293 293 293 293 292 292 294 294
316 317 316 317 317 320 318 318 320 318 319 319 317 317 319 319 318 317 316 314 314 313 311 311 311 310 308 307 306 305 302 301 298 296 296 295 295 293 292 292 292 292 291 291 292 292 292 292 293 292 292 293
313 316 315 315 316 316 316 319 316 316 317 318 318 315 316 316 317 316 314 313 312 312 311 309 310 307 307 305 304 301 299 298 297 296 296 294 294 294 292 292 291 290 291 291 292 291 290 292 293 292 293 293
314 316 316 315 314 314 316 314 315 316 317 317 315 316 315 316 316 316 313 312 311 310 310 309 309 307 306 304 302 301 298 297 295 295 296 294 292 293 292 291 291 290 290 292 291 290 290 290 290 291 291 292
313 313 314 313 314 314 314 315 314 314 314 313 315 315 314 315 316 315 314 311 310 310 307 307 307 307 305 303 301 300 298 296 294 294 294 294 292 291 291 291 290 291 291 291 291 290 290 290 290 290 290 292
312 311 309 310 309 311 311 312 311 313 312 313 311 312 312 313 315 314 315 312 311 310 308 306 305 306 304 302 300 300 298 296 294 294 293 293 293 291 290 290 290 291 291 289 289 289 289 288 289 290 290 290
308 307 306 305 307 306 306 308 308 311 311 311 310 309 310 310 311 311 312 312 311 310 308 307 304 305 302 301 300 300 299 298 295 295 294 293 292 291 290 289 289 291 291 290 287 287 287 289 288 289 289 289
306 305 305 305 304 304 305 307 306 308 308 308 308 307 308 308 309 310 311 309 308 308 308 306 303 303 303 300 300 300 299 297 295 294 293 291 289 290 291 290 290 291 291 287 287 286 286 286 285 286 288 288
302 304 305 305 303 304 305 306 306 305 304 306 305 305 304 305 306 308 307 306 306 306 306 305 303 301 302 301 301 299 298 296 295 293 293 292 292 289 288 289 290 291 292 287 285 285 285 281 284 285 286 286
300 301 301 301 301 302 304 302 301 303 303 303 304 304 303 303 301 302 303 303 304 304 305 304 303 301 300 300 299 300 299 297 296 293 292 292 292 291 289 288 289 291 291 287 288 284 285 281 282 280 283 285
299 300 300 299 300 299 298 299 299 298 297 298 298 300 300 301 300 300 300 299 301 302 302 302 303 300 299 298 298 299 299 297 297 296 294 293 292 291 291 289 288 290 290 288 292 288 282 281 282 282 281 283
298 297 297 297 296 295 295 294 296 295 296 297 298 299 298 299 299 299 299 297 298 298 298 299 299 299 297 297 298 298 298 298 297 295 295 294 293 291 290 291 288 288 290 289 289 288 286 286 285 281 282 283
295 296 296 296 295 294 294 293 294 295 295 295 296 296 297 298 298 298 300 297 296 297 296 297 296 297 297 296 296 297 297 297 296 296 295 295 294 293 293 289 288 288 290 289 289 289 288 288 285 285 285 283
Wind_Speed
15 15 15 14 15 14 13 12 12 11 11 10 10 11 12 12 12 12 12 12 13 12 10 12 11 10 10 9 7 6 6 7 6 5 4 5 8 6 5 5 4 5 5 6 6 7 7 8 9 8 6 5
15 14 15 15 14 14 13 12 12 11 10 9 10 11 11 11 11 10 11 10 11 10 11 11 10 9 10 9 8 7 6 6 6 5 6 10 8 7 6 6 5 5 5 6 6 6 7 8 8 7 7 5
11 15 14 15 14 14 13 13 13 12 11 10 10 11 11 10 10 9 9 9 9 10 10 9 9 7 7 8 8 7 7 7 7 6 9 9 8 7 7 6 5 5 5 6 6 6 7 7 6 7 6 4
8 12 14 13 14 14 13 13 13 12 11 11 12 11 11 9 7 6 7 11 9 10 11 10 7 8 6 7 7 6 6 7 7 8 10 7 8 9 8 7 6 5 5 5 6 6 6 6 6 5 4 5
9 9 13 11 13 13 13 13 13 12 12 12 12 12 11 10 8 6 6 8 6 10 8 10 11 9 8 7 5 5 6 7 7 9 9 8 9 10 9 8 6 4 5 5 5 5 6 5 4 4 5 5
8 7 10 9 8 9 10 11 11 10 8 9 7 10 9 6 6 6 6 6 7 7 8 9 12 11 10 8 5 4 6 8 9 9 10 9 9 10 9 7 3 1 3 4 4 5 5 3 2 4 5 5
7 9 8 8 8 7 9 8 9 8 8 7 7 7 7 6 6 6 6 7 7 7 10 10 12 12 11 9 7 5 6 7 9 10 10 10 9 10 9 4 2 1 2 1 3 5 3 1 2 4 5 4
7 7 8 7 7 7 7 7 7 7 7 7 7 7 6 6 6 6 6 8 12 10 7 8 11 12 12 10 8 7 6 7 9 10 10 10 10 7 4 3 2 1 1 1 0 1 0 0 2 3 4 4
8 8 8 7 7 7 7 7 7 7 7 7 7 7 6 6 6 6 6 6 6 6 6 6 6 7 6 6 5 6 4 4 5 6 4 5 7 5 4 3 2 2 2 2 1 1 2 1 2 3 3 4
9 9 8 9 9 8 7 8 7 7 6 6 7 7 7 7 7 7 6 6 7 6 7 7 6 6 6 6 5 5 6 5 5 5 5 6 6 5 4 4 3 3 4 3 2 2 3 2 2 3 3 4
8 8 8 9 8 9 8 7 8 7 7 7 7 7 7 8 7 7 7 7 7 7 7 7 6 6 6 6 6 6 7 6 6 6 6 6 6 4 4 3 4 4 4 3 3 3 3 2 3 3 3 4
9 8 8 8 9 9 9 9 8 8 8 7 7 7 7 7 7 7 7 7 7 7 7 7 7 7 7 6 6 6 7 7 6 7 7 6 5 4 4 3 4 4 4 4 4 4 3 3 3 3 3 3
8 7 7 7 8 9 9 9 9 9 8 8 7 7 8 7 8 7 7 8 8 7 7 7 7 7 7 7 6 6 6 8 7 7 7 7 6 6 5 5 4 4 4 4 4 5 3 3 4 3 3 4
6 7 8 7 8 9 8 8 8 7 8 8 8 7 7 9 8 8 8 7 7 8 7 7 7 7 7 7 7 7 8 7 8 7 6 6 6 6 6 6 7 5 5 4 4 5 4 4 5 4 4 3
6 6 6 7 6 6 7 7 7 7 8 7 8 8 8 8 8 7 7 8 8 6 7 7 7 7 7 7 7 7 7 6 7 7 8 7 7 7 7 7 7 7 6 5 5 4 5 5 5 4 3 3
6 6 5 4 5 5 5 5 6 6 7 7 7 7 8 8 8 8 7 8 8 8 7 7 7 7 7 8 7 7 7 7 6 7 6 7 7 6 6 6 6 6 7 6 6 4 5 4 6 5 5 4
6 5 4 5 5 4 4 6 5 6 6 6 6 6 7 8 7 7 8 8 9 8 8 7 7 7 8 7 7 7 7 7 6 6 6 6 5 6 5 5 5 4 5 6 6 6 5 6 5 5 5 5
5 4 4 4 4 4 6 5 5 5 5 5 5 6 6 7 6 7 6 7 7 7 7 7 7 8 7 7 7 7 7 8 7 7 7 7 7 6 7 7 6 6 6 6 5 5 4 5 6 5 5 5
4 4 4 4 4 5 5 5 5 5 5 5 5 6 6 6 6 6 6 6 8 6 6 7 6 7 7 6 6 7 7 7 6 7 8 7 7 6 6 6 7 7 7 7 7 7 6 6 6 5 6 5
3 3 3 3 4 5 4 4 5 5 5 5 5 5 6 5 5 5 6 6 6 7 6 7 7 6 5 6 6 6 6 6 8 7 6 7 8 7 6 7 6 6 7 6 6 5 6 6 6 6 6 6
4 3 3 2 3 3 4 4 4 4 4 4 5 5 5 5 5 5 5 6 6 7 7 7 7 6 6 5 7 7 6 6 6 7 7 6 6 7 7 7 6 4 6 6 6 5 5 5 6 6 7 6
5 5 6 5 5 4 3 2 2 3 4 4 4 5 5 5 5 5 5 5 6 6 6 6 7 6 6 6 7 7 6 6 4 5 6 7 4 6 6 6 7 7 5 4 4 4 4 4 3 4 4 4
7 6 6 6 6 6 5 5 5 4 4 2 3 4 4 5 6 6 5 5 5 6 6 6 6 6 6 6 7 7 6 5 5 4 5 8 7 4 5 7 6 5 5 4 3 2 1 1 1 2 2 3
7 7 7 6 6 7 6 6 6 6 4 4 5 3 3 4 4 5 6 6 6 7 7 6 7 7 6 6 7 7 7 7 7 9 8 7 8 7 3 2 5 6 6 4 4 2 2 2 1 1 1 3
8 7 6 5 5 2 4 3 4 6 5 6 4 3 2 3 3 4 4 4 5 6 6 6 6 6 6 6 7 8 9 9 9 8 7 7 5 8 6 4 5 6 8 8 2 2 1 0 1 1 0 2
8 6 3 4 3 3 5 6 6 6 6 6 6 5 4 3 1 1 1 2 2 3 5 6 5 6 7 7 7 8 6 6 6 6 6 6 5 4 9 7 8 8 10 3 8 7 3 1 3 2 2 4
5 4 6 6 4 4 3 3 4 5 4 5 6 5 5 4 3 2 1 0 0 1 2 3 3 5 5 6 6 6 6 6 7 8 8 8 9 6 4 4 4 9 11 7 4 3 5 3 4 3 3 5
7 6 4 5 4 5 5 3 3 5 6 6 7 6 5 5 3 2 0 1 0 1 0 1 2 2 2 4 4 6 7 7 8 7 6 7 8 7 7 5 7 9 10 6 11 4 7 3 4 2 9 10
9 10 10 9 9 8 7 7 8 6 6 5 3 2 4 3 3 3 2 3 2 1 2 1 1 2 3 3 3 4 5 6 8 9 9 10 9 9 9 8 5 7 7 7 12 8 5 2 1 7 3 4
9 9 9 9 9 8 7 7 7 7 3 2 1 1 2 2 3 3 3 3 3 3 3 4 2 1 2 3 4 4 5 5 4 5 6 7 8 9 7 8 6 6 8 7 8 5 3 6 7 5 4 4
10 10 9 8 6 5 6 5 5 4 4 3 1 1 2 1 2 2 2 3 3 4 4 3 3 2 1 2 3 3 4 5 6 6 8 7 7 9 8 5 8 9 9 7 8 8 9 2 0 4 7 7
Wind_Direction
189 190 190 191 192 193 194 193 197 201 204 202 190 186 191 189 189 184 178 174 174 179 169 165 167 164 163 164 176 203 191 193 178 193 176 123 125 127 125 122 109 86 75 70 61 52 40 30 22 30 42 52
191 191 190 190 192 190 190 192 196 200 202 199 192 188 189 191 188 186 182 172 176 164 159 161 160 159 165 165 172 190 184 179 182 167 136 124 137 138 138 129 113 98 91 85 79 68 49 30 25 36 44 48
195 192 193 191 191 189 189 191 194 196 196 189 185 186 189 192 185 186 176 158 160 152 151 144 141 151 167 166 175 184 179 179 172 157 128 140 146 145 142 133 119 113 99 93 91 73 50 34 32 37 45 57
189 195 193 193 191 190 191 192 193 193 187 181 180 186 187 184 163 163 166 162 160 153 146 140 139 136 140 170 175 190 191 183 177 169 148 157 156 148 143 137 128 124 115 100 84 66 47 37 41 42 52 74
192 194 192 193 192 191 193 192 191 189 183 178 182 184 181 164 164 159 166 162 159 152 149 148 143 140 143 161 179 184 196 192 186 177 172 171 161 149 141 123 121 126 117 96 80 58 42 37 39 50 71 75
192 188 189 190 191 192 193 192 188 186 182 179 178 174 166 165 165 156 158 160 154 153 153 151 150 149 151 161 164 174 202 195 183 174 173 176 171 146 123 110 86 56 71 71 62 38 28 33 47 61 84 88
192 186 186 189 188 189 189 188 185 184 180 178 173 169 168 165 164 159 157 157 161 158 159 158 156 156 158 161 166 172 198 189 179 175 173 178 173 136 120 106 109 77 58 49 25 30 14 56 55 65 86 96
189 188 185 188 187 185 184 184 185 183 180 179 175 171 167 166 163 160 159 162 158 150 154 159 158 160 161 163 162 173 181 180 175 159 179 179 153 121 115 117 122 109 63 124 6 8 343 26 52 78 93 100
189 187 184 189 188 187 184 183 183 183 182 180 176 171 170 169 162 162 158 156 155 155 153 155 160 158 161 157 158 160 146 144 143 134 137 122 115 137 136 130 171 143 163 229 205 264 244 137 86 83 89 100
188 177 184 187 190 186 186 185 185 184 183 181 178 173 172 165 164 164 161 161 162 162 162 161 163 163 158 155 160 150 146 135 125 118 119 129 139 165 160 164 183 191 170 202 210 209 198 107 90 100 94 103
184 187 186 185 184 185 190 186 185 189 185 186 179 175 172 169 174 166 163 167 169 169 167 165 166 163 162 163 161 163 146 145 139 135 139 144 159 176 191 193 193 187 189 154 156 166 119 123 124 101 95 111
191 190 180 185 182 189 187 185 193 192 191 182 182 178 179 177 174 169 166 171 172 173 166 169 168 163 165 163 166 166 154 149 148 147 149 154 166 180 204 194 169 143 137 151 139 118 109 106 108 111 109 112
193 191 185 179 185 191 183 189 193 191 186 188 183 182 180 178 179 178 171 172 176 159 171 166 166 168 170 164 168 164 169 159 159 158 161 165 176 184 187 180 155 132 122 128 128 130 117 123 122 120 104 105
182 189 191 186 187 189 182 192 186 181 186 192 184 187 183 185 183 183 175 173 169 168 170 167 167 169 171 171 169 171 175 175 163 164 164 169 177 177 179 171 170 143 143 137 143 142 144 153 149 152 148 130
194 182 196 192 184 178 187 184 176 183 185 187 191 189 184 185 186 177 172 172 171 172 164 167 168 177 169 171 181 181 174 171 170 163 171 174 175 176 175 175 166 153 152 155 160 165 153 173 147 156 153 127
191 190 195 188 183 186 182 173 180 183 183 189 192 186 186 185 185 178 174 169 171 172 168 169 173 172 175 185 181 184 174 168 171 169 170 170 172 172 167 166 164 159 146 159 169 166 163 165 153 157 152 127
191 180 175 178 187 183 168 176 173 179 187 189 191 188 189 188 182 180 170 176 171 171 170 168 170 177 186 182 175 182 177 163 162 158 160 170 162 159 156 156 171 154 149 150 169 162 173 160 159 163 142 137
176 180 171 162 170 169 165 174 176 179 177 180 183 183 189 184 180 179 172 165 170 167 169 171 174 176 185 181 175 174 167 170 170 167 164 169 159 169 162 172 173 159 163 172 163 168 176 162 169 160 150 157
174 168 157 153 160 169 171 171 175 172 163 165 177 175 184 179 176 178 163 164 161 170 168 170 176 180 185 172 167 170 178 167 173 163 170 161 166 166 168 173 176 172 171 167 174 181 173 172 171 155 161 159
140 153 148 143 152 159 167 164 169 173 170 162 154 162 174 178 169 164 158 158 157 161 171 171 177 183 163 168 162 169 170 165 172 172 164 178 159 162 185 173 186 174 166 170 175 182 175 178 171 159 157 162
64 79 89 102 124 144 146 153 160 167 153 140 141 144 159 161 158 157 150 156 160 158 167 170 172 171 168 160 162 164 172 177 172 165 168 178 183 168 172 183 172 175 166 174 179 180 175 181 169 165 165 164
64 58 56 49 49 53 66 81 109 124 131 139 138 140 149 153 154 153 144 151 157 160 167 168 170 170 167 164 163 165 166 179 159 166 161 174 195 178 158 183 176 180 176 164 170 180 182 192 170 175 170 170
45 40 43 46 43 45 39 38 39 52 62 88 114 136 154 154 153 154 146 150 155 155 161 164 171 172 176 167 163 161 168 164 164 167 180 175 188 196 190 178 188 167 147 132 122 132 199 162 166 203 187 167
32 43 39 33 10 30 19 22 38 38 54 54 74 103 138 149 158 163 159 158 165 166 167 171 178 181 173 169 162 168 172 180 178 185 184 194 179 182 186 145 154 130 124 85 78 59 19 14 37 107 191 174
34 17 4 22 34 30 4 23 27 33 24 39 39 59 84 125 151 164 163 161 161 174 173 181 178 177 177 173 175 180 190 187 189 189 182 179 180 173 179 191 169 166 140 132 82 15 17 333 345 340 360 218
50 40 51 74 30 45 28 19 26 12 13 25 39 37 44 43 57 126 165 149 165 171 181 177 176 184 184 175 189 195 189 183 186 179 178 164 184 206 185 197 182 175 130 177 175 159 210 321 319 294 306 264
28 27 39 54 34 50 64 56 61 61 31 48 52 43 38 38 34 43 22 34 106 171 208 200 181 197 188 188 183 181 187 187 192 192 187 181 185 195 230 200 194 185 193 167 134 100 94 231 209 300 299 266
23 38 54 50 51 29 60 54 17 38 28 30 38 24 21 32 43 41 26 14 5 322 296 206 206 189 186 206 196 194 192 193 202 195 193 192 202 176 188 199 208 209 200 141 140 189 202 201 139 274 239 222
20 24 24 19 24 30 16 12 17 17 11 17 33 16 13 351 23 27 8 355 344 314 271 241 204 174 205 209 213 209 210 203 206 202 199 196 196 191 192 208 210 220 222 210 202 156 110 47 265 220 233 166
31 36 35 30 33 26 23 24 11 10 356 8 357 323 303 351 8 24 13 2 352 342 340 323 318 261 182 206 208 211 218 215 215 216 212 207 202 206 215 201 192 214 233 233 246 246 238 150 179 180 219 126
29 33 33 41 45 45 41 30 354 339 357 6 1 67 38 337 343 20 14 351 6 348 337 328 324 319 285 262 251 233 226 223 218 215 213 208 209 211 211 189 203 207 212 235 257 259 261 289 128 161 128 211